METEOSAT 3 AKM, 43333

Orbit data source: Space-Track

METEOSAT 3 AKM, 43333 is space debris in GEO originally from a launch on Wed, 15 Jun 1988 UTC launched from the French Guiana (FRGUI). Debris objects in space refer to the collection of defunct objects orbiting the Earth. Examples of debris include non-operational satellites, rocket bodies, and fragments generated from explosions, collisions, or faulty payload assembly.

Not visible in the next 10 days
Identifier
43333, 1988-051G
Orbit
GEO
Country
Flag of ESAESA
Related business
Manufacturer
SEP
Mission
Spacecraft
Bus & Motor
MAGE, Unknown motor
Mass
~0 kg wet, ~70 kg dry
Launch date (UTC)
1988-06-15 (38 years ago)
Launch vehicle
Unknown
Launch site
French Guiana (FRGUI)
Object type
Payload
Rocket body
Debris
Shape & HBR
Cyl, 0.5 m
Radar Cross Section
0.742 m², Large (>1 m²)

Expand to show TLE details & history
Last TLE update: 3 days ago

TLE from 3 days ago
0 METEOSAT 3 AKM
1 43333U 88051G   26170.66437686 -.00000092  00000-0  00000+0 0  9991
2 43333  11.9529 330.1086 0057091 173.2680 186.8147  0.99540381 45727
Epoch: 2026-06-19T15:56Z
TLE epoch observation values (Epoch: 2026-06-19T15:56:42.160Z)
Latitude
0.00001°
Longitude
-176.95081°
Altitude
36,232.15 km
Speed
3.05 km/s
True Right ascension
22h 00m 27s
True Declination
0° 00' 00"
Sunlit
Object was in daylight at epoch
Visualization orbit readout
Latitude
Unknown
Longitude
Unknown
Altitude
Unknown
Speed
Unknown
Apparent Right ascension
Unknown
Apparent Declination
Unknown
Sunlit
N/A
Visualization observer readout
Local Sidereal Time
23:19:21
Azimuth
Unknown
Elevation
Unknown
Doppler factor
Unknown
Orbital elements
Apogee altitude
36,235.793 km
Perigee altitude
35,751.981 km
Semi-major axis
42,372.024 km
Eccentricity
0.00571
Inclination
11.9529°
RAAN
330.1086°
Arg. of periapsis
173.268°
True anomaly
186.73762°
Mean anomaly
186.8147°
Eccentric anomaly
186.7761°
Mean motion
0.24884 °/min
Orbital period
1,446.7 mins
BSTAR
0
Loading maneuver chart data...
Computing Atmospheric mass density...
Loading historical data...
Loading historical data...
Loading historical data...
Loading historical data...
Loading historical data...
Loading historical data...
Loading historical data...

Documentation

Showing up to 5 results
|